Weather reports worldwide

Advertisment
Cardinham, United Kingdom (3823): temperature & dewpoint: 13.02.2018 14:00:00 - 19.02.2018 14:00:00 (GMT)Cardinham, United Kingdom (3823): temperature -20cm & temperature -100cm: 13.02.2018 14:00:00 - 19.02.2018 14:00:00 (GMT)Cardinham, United Kingdom (3823): wind speed & gusts: 13.02.2018 14:00:00 - 19.02.2018 14:00:00 (GMT)Cardinham, United Kingdom (3823): wind direction: 13.02.2018 14:00:00 - 19.02.2018 14:00:00 (GMT)Cardinham, United Kingdom (3823): reduced air pressure: 13.02.2018 14:00:00 - 19.02.2018 14:00:00 (GMT)Cardinham, United Kingdom (3823): visibility: 13.02.2018 14:00:00 - 19.02.2018 14:00:00 (GMT)Cardinham, United Kingdom (3823): precipitation: 13.02.2018 14:00:00 - 19.02.2018 14:00:00 (GMT)
Date & Time tt [°C] td [°C] tt -20cm [°C] tt -100cm [°C] ff [km/h] ff [kn] fx [km/h] fx [kn] dd ppp [hPa] vv [km] rr [mm]
19.02.2018 14:00:00 - - - - - - - - - - - -
19.02.2018 13:00:00 8,5 8,5 - - 16 9 - - NNW 1020,5 0,3 0,0
19.02.2018 12:00:00 8,1 8,1 - - 13 7 - - NNW 1020,7 0,2 0,0
19.02.2018 11:00:00 8,1 8,1 - - 13 7 - - NNW 1020,5 0,1 0,0
19.02.2018 10:00:00 8,2 8,2 - - 13 7 - - NW 1020,3 0,1 0,0
19.02.2018 09:00:00 7,8 7,8 6,7 6,9 16 9 - - NW 1020,2 0,1 0,0
19.02.2018 08:00:00 8,1 8,1 - - 15 8 - - NW 1020,1 0,1 0,0
19.02.2018 07:00:00 8,2 8,2 - - 11 6 - - NW 1019,6 0,1 0,0
19.02.2018 06:00:00 8,3 8,3 - - 9 5 - - NW 1019,2 0,1 0,0
19.02.2018 05:00:00 8,3 8,3 - - 9 5 - - NNW 1019,2 0,1 0,2
19.02.2018 04:00:00 8,3 8,3 - - 11 6 - - NW 1019,3 0,2 0,8
19.02.2018 03:00:00 8,3 8,3 - - 13 7 - - NW 1019,5 0,1 0,2
19.02.2018 02:00:00 8,4 8,4 - - 13 7 - - NW 1019,5 0,1 0,2
19.02.2018 01:00:00 8,5 8,5 - - 13 7 - - NW 1019,8 0,1 0,4
19.02.2018 00:00:00 8,5 8,4 - - 13 7 - - NW 1019,9 0,1 0,2
18.02.2018 23:00:00 8,4 8,4 - - 13 7 - - NW 1019,9 0,1 0,0
18.02.2018 22:00:00 8,3 8,3 - - 13 7 - - NW 1020,0 0,1 0,0
18.02.2018 21:00:00 8,2 8,2 - - 13 7 - - NW 1020,0 0,1 0,0
18.02.2018 20:00:00 8,2 8,1 - - 11 6 - - NW 1020,1 0,1 0,2
18.02.2018 19:00:00 8,1 8,0 - - 9 5 - - NW 1020,0 0,1 0,0
18.02.2018 18:00:00 8,1 8,1 - - 11 6 - - NW 1020,0 0,3 0,2
18.02.2018 17:00:00 8,5 8,5 - - 13 7 - - NW 1019,6 0,2 0,0
18.02.2018 16:00:00 8,7 8,7 - - 13 7 - - NW 1019,4 0,5 0,0
18.02.2018 15:00:00 9,1 9,1 - - 11 6 - - WNW 1019,2 0,1 0,0
18.02.2018 14:00:00 9,3 9,3 - - 9 5 - - WNW 1019,2 15 0,0
18.02.2018 13:00:00 9,5 9,4 - - 8 4 - - WNW 1019,1 20 0,0
18.02.2018 12:00:00 9,3 9,3 - - 8 4 - - WNW 1019,1 4,6 0,0
18.02.2018 11:00:00 9,2 9,2 - - 8 4 - - WSW 1019,0 1,7 0,2
18.02.2018 10:00:00 8,9 8,9 - - 5 3 - - W 1018,8 1,1 0,0
18.02.2018 09:00:00 8,4 8,4 6,2 6,9 5 3 - - NW 1018,7 0,2 0,2
18.02.2018 08:00:00 8,2 8,2 - - 8 4 - - WNW 1018,8 0,2 0,0
18.02.2018 07:00:00 7,6 7,6 - - 2 1 - - SSW 1018,6 0,1 0,2
18.02.2018 06:00:00 7,6 7,6 - - 4 2 - - SSE 1018,3 0,2 0,2
18.02.2018 05:00:00 7,6 7,6 - - 5 3 - - SE 1018,0 0,2 0,4
18.02.2018 04:00:00 7,6 7,6 - - 5 3 - - SE 1018,2 0,1 0,2
18.02.2018 03:00:00 7,4 7,4 - - 9 5 - - SE 1018,6 0,1 0,2
18.02.2018 02:00:00 7,1 7,1 - - 9 5 - - SSE 1018,9 0,1 0,0
18.02.2018 01:00:00 7,0 7,0 - - 16 9 - - SE 1019,3 2,4 0,6
18.02.2018 00:00:00 6,7 6,7 - - 18 10 - - SSE 1019,7 1,0 0,4
17.02.2018 23:00:00 6,5 6,4 - - 24 13 - - SSE 1019,9 2,6 0,2
17.02.2018 22:00:00 6,5 6,4 - - 26 14 - - SSE 1019,9 3,8 0,0
17.02.2018 21:00:00 6,4 6,2 - - 24 13 - - SSE 1020,4 7 0,0
17.02.2018 20:00:00 6,4 6,0 - - 18 10 - - S 1021,1 17 1,0
17.02.2018 19:00:00 6,8 6,4 - - 13 7 - - SSW 1021,6 8 1,4
17.02.2018 18:00:00 6,4 5,5 - - 8 4 - - SSE 1021,7 13 0,6
17.02.2018 17:00:00 7,7 4,7 - - 8 4 - - SSW 1021,6 23 0,0
17.02.2018 16:00:00 8,4 4,5 - - 15 8 - - WSW 1021,7 29 0,0
17.02.2018 15:00:00 9,3 3,1 - - 15 8 - - W 1021,7 30 0,0
17.02.2018 14:00:00 9,7 3,8 - - 13 7 - - W 1022,0 35 0,0
17.02.2018 13:00:00 9,0 3,0 - - 15 8 - - W 1022,4 35 0,0
17.02.2018 12:00:00 8,5 4,0 - - 13 7 - - W 1022,6 40 0,0
17.02.2018 11:00:00 7,7 5,7 - - 9 5 - - W 1022,4 9 0,0
17.02.2018 10:00:00 6,9 6,2 - - 4 2 - - SW 1022,0 18 0,0
17.02.2018 09:00:00 5,1 4,7 5,9 6,9 2 1 - - SE 1021,6 12 0,0
17.02.2018 08:00:00 3,9 3,5 - - 5 3 - - NW 1021,2 11 0,0
17.02.2018 07:00:00 5,1 4,7 - - 9 5 - - WSW 1020,4 14 0,0
17.02.2018 06:00:00 5,2 4,3 - - 8 4 - - SW 1020,1 21 0,0
17.02.2018 05:00:00 5,0 3,7 - - 9 5 - - SW 1019,8 28 0,0
17.02.2018 04:00:00 5,2 3,7 - - 9 5 - - WSW 1019,7 21 0,0
17.02.2018 03:00:00 5,4 3,6 - - 5 3 - - S 1019,6 19 0,0
17.02.2018 02:00:00 5,5 3,5 - - 9 5 - - SSE 1019,6 17 0,0
17.02.2018 01:00:00 5,6 3,6 - - 13 7 - - SSE 1019,7 20 0,0
17.02.2018 00:00:00 5,6 3,7 - - 15 8 - - SSE 1019,7 16 0,0
16.02.2018 23:00:00 5,6 3,7 - - 15 8 - - SSE 1019,8 17 0,0
16.02.2018 22:00:00 5,5 3,4 - - 15 8 - - SSE 1020,1 19 0,0
16.02.2018 21:00:00 5,5 2,8 - - 13 7 - - SSE 1020,5 18 0,0
16.02.2018 20:00:00 5,2 2,1 - - 16 9 - - SSE 1021,1 22 0,0
16.02.2018 19:00:00 5,1 1,9 - - 15 8 - - SSE 1021,4 22 0,0
16.02.2018 18:00:00 5,4 2,1 - - 16 9 - - SSE 1021,4 26 0,0
16.02.2018 17:00:00 6,0 2,4 - - 21 11 - - S 1021,4 22 0,0
16.02.2018 16:00:00 6,6 2,0 - - 24 13 - - S 1021,7 25 0,0
16.02.2018 15:00:00 7,3 1,5 - - 28 15 - - SSE 1021,7 28 0,0
16.02.2018 14:00:00 7,4 0,6 - - 28 15 - - S 1022,9 35 0,0
16.02.2018 13:00:00 7,2 2,0 - - 24 13 - - S 1023,9 30 0,0
16.02.2018 12:00:00 7,1 3,1 - - 18 10 - - S 1024,5 30 0,0
16.02.2018 11:00:00 6,3 4,1 - - 13 7 - - SE 1024,9 17 0,0
16.02.2018 10:00:00 5,5 2,6 - - 9 5 - - SE 1025,0 18 0,2
16.02.2018 09:00:00 4,1 2,1 6,0 6,9 8 4 - - SSE 1025,0 26 0,0
16.02.2018 08:00:00 1,3 0,6 - - 8 4 - - SE 1025,0 17 0,0
16.02.2018 07:00:00 0,7 0,0 - - 5 3 - - S 1024,7 15 0,0
16.02.2018 06:00:00 1,3 0,6 - - 8 4 - - SSW 1024,5 14 0,0
16.02.2018 05:00:00 1,5 0,7 - - 8 4 - - S 1024,2 14 0,0
16.02.2018 04:00:00 1,5 0,5 - - 5 3 - - SSW 1023,8 13 0,0
16.02.2018 03:00:00 2,3 0,8 - - 11 6 - - WSW 1023,6 16 0,0
16.02.2018 02:00:00 3,1 1,7 - - 15 8 - - WSW 1023,2 19 0,0
16.02.2018 01:00:00 3,7 2,5 - - 11 6 - - W 1022,7 16 0,0
16.02.2018 00:00:00 3,0 1,9 - - 15 8 - - W 1022,2 17 0,0
15.02.2018 23:00:00 3,2 1,7 - - 16 9 - - W 1021,9 26 0,2
15.02.2018 22:00:00 2,1 1,4 - - 15 8 - - WSW 1021,4 13 0,0
15.02.2018 21:00:00 2,4 1,4 - - 15 8 - - WSW 1020,4 14 0,8
15.02.2018 20:00:00 3,3 2,1 - - 18 10 - - WSW 1019,7 15 0,0
15.02.2018 19:00:00 4,0 1,7 - - 16 9 - - W 1018,9 20 0,0
15.02.2018 18:00:00 4,6 1,2 - - 18 10 - - W 1017,9 19 0,0
15.02.2018 17:00:00 5,6 1,7 - - 21 11 - - W 1017,2 21 0,0
15.02.2018 16:00:00 6,1 2,4 - - 22 12 57 31 W 1016,3 23 0,0
15.02.2018 15:00:00 7,6 0,3 - - 34 18 46 25 W 1015,3 21 0,0
15.02.2018 14:00:00 6,7 0,6 - - 26 14 46 25 W 1014,7 17 0,0
15.02.2018 13:00:00 5,5 3,1 - - 18 10 55 30 WNW 1014,4 21 0,4
15.02.2018 12:00:00 8,2 3,3 - - 24 13 - - W 1013,3 22 0,0
15.02.2018 11:00:00 6,7 2,8 - - 21 11 - - W 1012,8 18 0,0
15.02.2018 10:00:00 5,3 3,6 - - 11 6 - - W 1011,7 13 0,2
15.02.2018 09:00:00 4,1 3,2 5,7 6,9 18 10 - - NW 1010,8 13 0,8
15.02.2018 08:00:00 4,0 3,0 - - 15 8 - - WNW 1009,4 14 0,0
15.02.2018 07:00:00 5,0 3,0 - - 16 9 - - WNW 1007,7 16 0,0
15.02.2018 06:00:00 5,9 3,4 - - 18 10 - - W 1006,7 22 0,0
15.02.2018 05:00:00 6,5 4,7 - - 21 11 - - W 1005,3 14 0,0
15.02.2018 04:00:00 6,9 4,9 - - 24 13 - - W 1004,4 16 0,0
15.02.2018 03:00:00 7,4 6,4 - - 24 13 - - W 1003,5 10 0,0
15.02.2018 02:00:00 7,6 6,0 - - 22 12 - - W 1002,6 12 0,0
15.02.2018 01:00:00 8,1 7,4 - - 18 10 - - WSW 1001,9 7 0,0
15.02.2018 00:00:00 7,8 7,3 - - 15 8 - - SW 1001,6 8 0,0
14.02.2018 23:00:00 8,2 7,6 - - 16 9 - - SW 1001,0 7 0,0
14.02.2018 22:00:00 7,9 7,2 - - 11 6 - - SW 1000,5 8 0,0
14.02.2018 21:00:00 7,7 6,9 - - 15 8 - - SW 1000,0 9 0,0
14.02.2018 20:00:00 7,9 7,8 - - 18 10 - - W 999,7 11 0,0
14.02.2018 19:00:00 8,6 8,5 - - 15 8 46 25 WSW 998,9 12 0,6
14.02.2018 18:00:00 10,3 10,3 - - 24 13 - - WSW 998,2 2,0 1,6
14.02.2018 17:00:00 10,5 10,5 - - 21 11 - - SW 997,4 6 0,8
14.02.2018 16:00:00 10,5 10,5 - - 21 11 - - SW 997,0 3,4 1,0
14.02.2018 15:00:00 9,6 9,6 - - 15 8 - - S 997,0 0,1 0,8
14.02.2018 14:00:00 9,3 9,3 - - 16 9 - - S 997,0 0,1 0,0
14.02.2018 13:00:00 8,5 8,5 - - 24 13 - - S 997,1 0,2 0,2
14.02.2018 12:00:00 7,2 7,2 - - 29 16 52 28 SSE 997,9 2,8 0,6
14.02.2018 11:00:00 6,1 6,0 - - 39 21 59 32 SSE 998,2 2,8 0,4
14.02.2018 10:00:00 5,1 5,0 - - 44 24 72 39 SSE 998,9 3,4 -
14.02.2018 09:00:00 4,7 4,5 5,7 7,0 48 26 70 38 SSE 999,1 4,1 1,2
14.02.2018 08:00:00 4,4 3,9 - - 44 24 68 37 SSE 999,9 6 1,4
14.02.2018 07:00:00 4,1 3,4 - - 44 24 63 34 SSE 1000,1 9 1,0
14.02.2018 06:00:00 4,0 3,0 - - 42 23 61 33 S 1000,9 8 0,6
14.02.2018 05:00:00 4,4 2,1 - - 37 20 57 31 SSE 1001,6 20 0,0
14.02.2018 04:00:00 4,7 0,6 - - 34 18 46 25 SSE 1002,8 40 0,0
14.02.2018 03:00:00 4,2 0,3 - - 24 13 - - S 1004,3 30 0,0
14.02.2018 02:00:00 2,4 -0,1 - - 18 10 - - SSE 1005,5 30 0,0
14.02.2018 01:00:00 1,3 -1,0 - - 13 7 - - SE 1006,8 27 0,0
14.02.2018 00:00:00 0,8 -1,7 - - 13 7 - - SE 1007,4 29 0,0
13.02.2018 23:00:00 0,5 -2,0 - - 9 5 - - S 1007,6 27 0,0
13.02.2018 22:00:00 -0,1 -2,6 - - 8 4 - - S 1008,5 29 0,0
13.02.2018 21:00:00 1,4 -1,9 - - 8 4 - - W 1008,6 35 0,0
13.02.2018 20:00:00 1,4 -1,8 - - 9 5 - - W 1008,5 30 0,0
13.02.2018 19:00:00 1,8 -1,6 - - 9 5 - - WNW 1007,9 25 0,0
13.02.2018 18:00:00 3,0 -1,0 - - 11 6 - - WNW 1007,2 29 0,0
13.02.2018 17:00:00 4,0 -0,5 - - 18 10 - - NW 1005,9 30 0,0
13.02.2018 16:00:00 5,1 0,0 - - 26 14 - - NW 1004,9 21 0,4
13.02.2018 15:00:00 4,2 -0,2 - - 28 15 50 27 NNW 1003,9 22 0,0
13.02.2018 14:00:00 4,9 1,7 - - 35 19 52 28 NW 1003,0 16 0,0

tt = temperature
td = dewpoint
tt -20cm = temperature -20cm
tt -100cm = temperature -100cm
ff = wind speed
fx = gusts
dd = wind direction
ppp = reduced air pressure
vv = visibility
rr = precipitation

Next stations